Regional Weather Roundup
Issued by NWS

Home | Current Version | Previous Version | Text Only | Print | Product List | Glossary Off
Versions: 1 2 3 4 5 6 7 8 9 10 11 12 13 14 15 16 17 18 19 20 21 22 23 24 25 26 27 28 29 30 31 32 33 34 35 36 37 38 39 40 41 42 43 44 45 46 47 48 49 50

000
ASUS45 KBOU 240907
RWRCO

WEATHER ROUNDUP FOR COLORADO
NATIONAL WEATHER SERVICE DENVER/BOULDER CO
300 AM MDT SUN MAY 24 2015

NOTE: "FAIR" INDICATES FEW OR NO CLOUDS BELOW 12000 FEET WITH NO
SIGNIFICANT WEATHER AND/OR OBSTRUCTIONS TO VISIBILITY.

COZ001>005-013-030-031-241000-
...NORTHWEST COLORADO...

CITY           SKY/WX    TMP DP  RH WIND       PRES   REMARKS
CRAIG          CLOUDY    40  36  86 CALM      29.99F
HAYDEN         CLOUDY    39  34  81 E7        29.99S
MEEKER         MOCLDY    38  35  89 CALM      29.99F
MOUNT WERNER   NOT AVBL
STEAMBOAT SPGS CLOUDY    36  34  92 CALM      30.00S
WALDEN         MOCLDY    34  32  93 S8        29.98F WCI  27
$$

COZ006>008-011-241000-
...WEST CENTRAL VALLEYS...

CITY           SKY/WX    TMP DP  RH WIND       PRES   REMARKS
GRAND JUNCTION CLOUDY    46  42  86 E8        29.97F
MONTROSE       PTCLDY    41  39  93 E5        30.01F
EAGLE          CLOUDY    36  36 100 E5        30.04S
RIFLE          MOCLDY    45  39  79 CALM      29.98F
DELTA          CLOUDY    46  44  93 MISG      30.00S
NUCLA          PTCLDY    39  37  93 E6        30.04S
$$

COZ017>023-064>068-241000-
...SOUTHWEST COLORADO...

CITY           SKY/WX    TMP DP  RH WIND       PRES   REMARKS
DURANGO        CLOUDY    41  39  93 CALM      30.02F
CORTEZ         RAIN      44  43  96 W5        30.01S FOG
PAGOSA SPRINGS RAIN      42  37  84 SW3       30.04F
TELLURIDE      PTCLDY    32  29  89 E3        30.07F
WOLF CREEK PAS NOT AVBL
$$

COZ009-010-012-014-032>034-037-058>063-241000-
...CENTRAL COLORADO...

CITY           SKY/WX    TMP DP  RH WIND       PRES   REMARKS
ASPEN          CLOUDY    38  34  85 CALM      30.01F
BUENA VISTA    CLOUDY    38  30  73 CALM      30.01F
COPPER MTN     MOCLDY    28  19  69 CALM      30.10F
BERTHOUD PASS  FAIR      21  14  73 W7G20     30.12S WCI  13
COTTONWOOD PAS CLOUDY    36  28  75 W3        30.05F
GUNNISON       MOCLDY    39  32  75 N7        30.05F
KREMMLING      CLOUDY    36  34  93 CALM      30.04F
LEADVILLE      LGT SNOW  28  24  85 CALM      30.05F FOG
SALIDA         MOCLDY    39  32  77 W6        30.07F
SUNLIGHT       LGT SNOW  32  30  93 CALM        N/A
WILKERSON PASS CLOUDY    30  27  86 SW6       30.12S WCI  24
$$

COZ069>075-241000-
...SAN LUIS VALLEY/SANGRE DE CRISTO MOUNTAINS...

CITY           SKY/WX    TMP DP  RH WIND       PRES   REMARKS
ALAMOSA        MOCLDY    40  29  64 VRB3      30.00F
LA VETA PASS   CLEAR    N/A N/A N/A MISG      30.08S
SAGUACHE       MOCLDY    39  32  75 NW8       30.00F
$$

COZ035-036-038>040-241000-
...NORTHERN COLORADO FRONT RANGE...

CITY           SKY/WX    TMP DP  RH WIND       PRES   REMARKS
DENVER INTL AP PTCLDY    42  39  89 SW5       29.93F
DMNS CITY PARK   N/A     41  40  95 S2        29.93F
AURORA         PTCLDY    40  40  99 S7        29.95F
FRONT RANGE AP NOT AVBL
ERIE MUNI ARPT PTCLDY    38  38  97 CALM      29.94S
BOULDER MUN AP PTCLDY    41  37  87 S3        29.93F
CENTENNIAL     MOCLDY    40  38  93 CALM      29.95S
BROOMFIELD     PTCLDY    45  37  76 CALM      29.95S
FORT COLLINS   CLEAR     43  39  87 SE6       29.94F
LONGMONT       CLEAR     40  39  95 CALM      29.95F
$$

COZ041-046-047-076>085-087-088-241000-
...PIKES PEAK/PALMER DIVIDE AND SOUTHERN FOOTHILLS...

CITY           SKY/WX    TMP DP  RH WIND       PRES   REMARKS
COLO. SPRINGS  PTCLDY    43  40  89 W7        29.96F
A. F. ACADEMY  PTCLDY    40  37  91 N5        29.96F
ELLICOTT       NOT AVBL
FALCON         PTCLDY    40  38  93 N3        29.98F
FORT CARSON    PTCLDY    46  39  78 W3        29.94S
LIMON          LGT RAIN  43  43 100 SE3       29.93F
MONUMENT HILL  NOT AVBL
TRINIDAD       CLOUDY    43  39  86 W8        29.95R
$$

COZ042>045-048>051-090-091-241000-
...NORTHEAST COLORADO...

CITY           SKY/WX    TMP DP  RH WIND       PRES   REMARKS
GREELEY ARPT   CLEAR     43  39  87 W3        29.92F
AKRON          CLOUDY    48  48 100 S5        29.91S FOG
BURLINGTON     MOCLDY    51  44  77 SE6       29.90R
WRAY           MOCLDY   N/A N/A N/A SE8       29.90F
STERLING       CLOUDY    50  50 100 CALM      29.90S
HOLYOKE        NOT AVBL
FORT MORGAN    CLOUDY    47  46  95 SW5       29.92F FOG
$$

COZ086-089-092>099-241000-
...SOUTHEAST COLORADO...

CITY           SKY/WX    TMP DP  RH WIND       PRES   REMARKS
PUEBLO         PTCLDY    46  44  93 NW5       29.91F
LA JUNTA       CLOUDY    52  49  89 NW3       29.90F
LAMAR          CLOUDY    56  55  97 E3        29.86F
SPRINGFIELD      N/A     54  53  97 S10       29.88F
$$


USA.gov is the U.S. government's official web portal to all federal, state and local government web resources and services.